contact:dominique.lefevre@mio.osupytheas.fr, maurice.libes@osupytheas.fr, didier.mallarino@osupytheas.fr
Project:EMSO http://www.emso-fr.org/EMSO-France
Depth: 2436.0 m
Title:EMSO Ligure Ouest : Data MII capteur OXYGEN
DateTime,Latitude,Longitude,Optode-Type,Optode_Serial,Oxygen,Saturation_Oxygen,Temperature
DateTime,Latitude,Longitude,Optode-Type,Optode_Serial,µmol.l-1,%,degC
2019-05-28T00:01:29,42.805,6.029,4330,1995,195.381,59.755,13.291
2019-05-28T00:04:29,42.805,6.029,4330,1995,195.399,59.761,13.292
2019-05-28T00:07:29,42.805,6.029,4330,1995,195.393,59.756,13.290
2019-05-28T00:10:29,42.805,6.029,4330,1995,195.439,59.771,13.290
2019-05-28T00:13:29,42.805,6.029,4330,1995,195.447,59.772,13.290
2019-05-28T00:16:29,42.805,6.029,4330,1995,195.434,59.769,13.290
2019-05-28T00:19:29,42.805,6.029,4330,1995,195.498,59.788,13.290
2019-05-28T00:22:29,42.805,6.029,4330,1995,195.460,59.777,13.290
2019-05-28T00:25:29,42.805,6.029,4330,1995,195.484,59.785,13.290
2019-05-28T00:28:29,42.805,6.029,4330,1995,195.450,59.773,13.289
2019-05-28T00:31:29,42.805,6.029,4330,1995,195.547,59.802,13.289
2019-05-28T00:34:29,42.805,6.029,4330,1995,195.465,59.778,13.289
2019-05-28T00:37:29,42.805,6.029,4330,1995,195.570,59.810,13.289
2019-05-28T00:40:29,42.805,6.029,4330,1995,195.491,59.785,13.289
2019-05-28T00:43:29,42.805,6.029,4330,1995,195.541,59.800,13.289
2019-05-28T00:46:29,42.805,6.029,4330,1995,195.596,59.818,13.289
2019-05-28T00:49:29,42.805,6.029,4330,1995,195.549,59.803,13.289
2019-05-28T00:52:29,42.805,6.029,4330,1995,195.553,59.805,13.289
2019-05-28T00:55:29,42.805,6.029,4330,1995,195.481,59.782,13.288
2019-05-28T00:58:29,42.805,6.029,4330,1995,195.526,59.795,13.289
2019-05-28T01:01:29,42.805,6.029,4330,1995,195.495,59.786,13.289
2019-05-28T01:04:29,42.805,6.029,4330,1995,195.539,59.799,13.288
2019-05-28T01:07:29,42.805,6.029,4330,1995,195.516,59.792,13.288
2019-05-28T01:10:29,42.805,6.029,4330,1995,195.539,59.799,13.289
2019-05-28T01:13:29,42.805,6.029,4330,1995,195.454,59.773,13.289
2019-05-28T01:16:29,42.805,6.029,4330,1995,195.406,59.759,13.289
2019-05-28T01:19:29,42.805,6.029,4330,1995,195.392,59.754,13.289
2019-05-28T01:22:29,42.805,6.029,4330,1995,195.448,59.772,13.289
2019-05-28T01:25:29,42.805,6.029,4330,1995,195.407,59.759,13.289
2019-05-28T01:28:29,42.805,6.029,4330,1995,195.463,59.776,13.289
2019-05-28T01:31:29,42.805,6.029,4330,1995,195.450,59.772,13.289
2019-05-28T01:34:29,42.805,6.029,4330,1995,195.413,59.761,13.289
2019-05-28T01:37:29,42.805,6.029,4330,1995,195.431,59.767,13.289
2019-05-28T01:40:29,42.805,6.029,4330,1995,195.353,59.743,13.289
2019-05-28T01:43:29,42.805,6.029,4330,1995,195.308,59.730,13.289
2019-05-28T01:46:29,42.805,6.029,4330,1995,195.329,59.736,13.289
2019-05-28T01:49:29,42.805,6.029,4330,1995,195.240,59.709,13.289
2019-05-28T01:52:29,42.805,6.029,4330,1995,195.309,59.730,13.290
2019-05-28T01:55:29,42.805,6.029,4330,1995,195.267,59.717,13.290
2019-05-28T01:58:29,42.805,6.029,4330,1995,195.328,59.736,13.289
2019-05-28T02:01:29,42.805,6.029,4330,1995,195.257,59.715,13.290
2019-05-28T02:04:29,42.805,6.029,4330,1995,195.244,59.711,13.290
2019-05-28T02:07:29,42.805,6.029,4330,1995,195.237,59.708,13.290
2019-05-28T02:10:29,42.805,6.029,4330,1995,195.241,59.710,13.290
2019-05-28T02:13:29,42.805,6.029,4330,1995,195.212,59.701,13.290
2019-05-28T02:16:29,42.805,6.029,4330,1995,195.225,59.705,13.290
2019-05-28T02:19:29,42.805,6.029,4330,1995,195.181,59.692,13.290
2019-05-28T02:22:29,42.805,6.029,4330,1995,195.125,59.675,13.290
2019-05-28T02:25:29,42.805,6.029,4330,1995,195.130,59.677,13.291
2019-05-28T02:28:29,42.805,6.029,4330,1995,195.059,59.655,13.290
2019-05-28T02:31:29,42.805,6.029,4330,1995,195.085,59.663,13.290
2019-05-28T02:34:29,42.805,6.029,4330,1995,195.111,59.671,13.290
2019-05-28T02:37:29,42.805,6.029,4330,1995,195.098,59.667,13.290
2019-05-28T02:40:29,42.805,6.029,4330,1995,195.026,59.645,13.290
2019-05-28T02:43:29,42.805,6.029,4330,1995,195.056,59.654,13.290
2019-05-28T02:46:29,42.805,6.029,4330,1995,194.966,59.627,13.290
2019-05-28T02:49:29,42.805,6.029,4330,1995,195.029,59.646,13.290
2019-05-28T02:52:29,42.805,6.029,4330,1995,194.954,59.622,13.290
2019-05-28T02:55:29,42.805,6.029,4330,1995,194.933,59.616,13.290
2019-05-28T02:58:29,42.805,6.029,4330,1995,194.804,59.577,13.290
2019-05-28T03:01:29,42.805,6.029,4330,1995,194.746,59.558,13.290
2019-05-28T03:04:29,42.805,6.029,4330,1995,194.895,59.603,13.289
2019-05-28T03:07:29,42.805,6.029,4330,1995,194.904,59.606,13.289
2019-05-28T03:10:29,42.805,6.029,4330,1995,194.873,59.597,13.289
2019-05-28T03:13:29,42.805,6.029,4330,1995,194.874,59.597,13.290
2019-05-28T03:16:29,42.805,6.029,4330,1995,194.812,59.578,13.289
2019-05-28T03:19:29,42.805,6.029,4330,1995,194.816,59.579,13.289
2019-05-28T03:22:29,42.805,6.029,4330,1995,194.813,59.579,13.290
2019-05-28T03:25:29,42.805,6.029,4330,1995,194.821,59.581,13.290
2019-05-28T03:28:29,42.805,6.029,4330,1995,194.813,59.578,13.290
2019-05-28T03:31:29,42.805,6.029,4330,1995,194.818,59.580,13.289
2019-05-28T03:34:29,42.805,6.029,4330,1995,194.752,59.560,13.290
2019-05-28T03:37:29,42.805,6.029,4330,1995,194.708,59.547,13.290
2019-05-28T03:40:29,42.805,6.029,4330,1995,194.789,59.571,13.290
2019-05-28T03:43:29,42.805,6.029,4330,1995,194.811,59.578,13.290
2019-05-28T03:46:29,42.805,6.029,4330,1995,194.775,59.567,13.290
2019-05-28T03:49:29,42.805,6.029,4330,1995,194.792,59.573,13.290
2019-05-28T03:52:29,42.805,6.029,4330,1995,194.709,59.548,13.291
2019-05-28T03:55:29,42.805,6.029,4330,1995,194.669,59.536,13.291
2019-05-28T03:58:29,42.805,6.029,4330,1995,194.586,59.512,13.292
2019-05-28T04:01:29,42.805,6.029,4330,1995,194.462,59.474,13.292
2019-05-28T04:04:29,42.805,6.029,4330,1995,194.396,59.455,13.293
2019-05-28T04:07:29,42.805,6.029,4330,1995,194.401,59.456,13.292
2019-05-28T04:10:29,42.805,6.029,4330,1995,194.466,59.476,13.292
2019-05-28T04:13:29,42.805,6.029,4330,1995,194.411,59.461,13.293
2019-05-28T04:16:29,42.805,6.029,4330,1995,194.440,59.470,13.294
2019-05-28T04:19:29,42.805,6.029,4330,1995,194.259,59.414,13.293
2019-05-28T04:22:29,42.805,6.029,4330,1995,194.265,59.417,13.294
2019-05-28T04:25:29,42.805,6.029,4330,1995,194.233,59.407,13.294
2019-05-28T04:28:29,42.805,6.029,4330,1995,194.223,59.404,13.294
2019-05-28T04:31:29,42.805,6.029,4330,1995,194.257,59.416,13.295
2019-05-28T04:34:29,42.805,6.029,4330,1995,194.259,59.416,13.295
2019-05-28T04:37:29,42.805,6.029,4330,1995,194.188,59.394,13.295
2019-05-28T04:40:29,42.805,6.029,4330,1995,194.235,59.410,13.296
2019-05-28T04:43:29,42.805,6.029,4330,1995,194.123,59.378,13.298
2019-05-28T04:46:29,42.805,6.029,4330,1995,194.118,59.375,13.296
2019-05-28T04:49:29,42.805,6.029,4330,1995,194.140,59.385,13.299
2019-05-28T04:52:29,42.805,6.029,4330,1995,194.185,59.394,13.295
2019-05-28T04:55:29,42.805,6.029,4330,1995,194.160,59.389,13.297
2019-05-28T04:58:29,42.805,6.029,4330,1995,194.281,59.421,13.293
2019-05-28T05:01:29,42.805,6.029,4330,1995,194.303,59.428,13.294
2019-05-28T05:04:29,42.805,6.029,4330,1995,194.297,59.427,13.294
2019-05-28T05:07:29,42.805,6.029,4330,1995,194.346,59.441,13.294
2019-05-28T05:10:29,42.805,6.029,4330,1995,194.318,59.431,13.293
2019-05-28T05:13:29,42.805,6.029,4330,1995,194.344,59.439,13.292
2019-05-28T05:16:29,42.805,6.029,4330,1995,194.288,59.422,13.293
2019-05-28T05:19:29,42.805,6.029,4330,1995,194.372,59.447,13.292
2019-05-28T05:22:29,42.805,6.029,4330,1995,194.400,59.455,13.292
2019-05-28T05:25:29,42.805,6.029,4330,1995,194.518,59.492,13.292
2019-05-28T05:28:29,42.805,6.029,4330,1995,194.372,59.447,13.292
2019-05-28T05:31:29,42.805,6.029,4330,1995,194.353,59.443,13.293
2019-05-28T05:34:29,42.805,6.029,4330,1995,194.162,59.389,13.297
2019-05-28T05:37:29,42.805,6.029,4330,1995,194.187,59.394,13.295
2019-05-28T05:40:29,42.805,6.029,4330,1995,194.178,59.393,13.296
2019-05-28T05:43:29,42.805,6.029,4330,1995,194.187,59.394,13.295
2019-05-28T05:46:29,42.805,6.029,4330,1995,194.149,59.384,13.296
2019-05-28T05:49:29,42.805,6.029,4330,1995,194.181,59.393,13.295
2019-05-28T05:52:29,42.805,6.029,4330,1995,194.276,59.422,13.295
2019-05-28T05:55:29,42.805,6.029,4330,1995,194.322,59.434,13.294
2019-05-28T05:58:29,42.805,6.029,4330,1995,194.303,59.432,13.297
2019-05-28T06:01:29,42.805,6.029,4330,1995,194.281,59.423,13.295
2019-05-28T06:04:29,42.805,6.029,4330,1995,194.343,59.440,13.294
2019-05-28T06:07:29,42.805,6.029,4330,1995,194.330,59.434,13.292
2019-05-28T06:10:29,42.805,6.029,4330,1995,194.422,59.464,13.293
2019-05-28T06:13:29,42.805,6.029,4330,1995,194.324,59.440,13.298
2019-05-28T06:16:29,42.805,6.029,4330,1995,194.202,59.405,13.299
2019-05-28T06:19:29,42.805,6.029,4330,1995,194.240,59.412,13.296
2019-05-28T06:22:29,42.805,6.029,4330,1995,194.270,59.421,13.296
2019-05-28T06:25:29,42.805,6.029,4330,1995,194.400,59.460,13.296
2019-05-28T06:28:29,42.805,6.029,4330,1995,194.377,59.454,13.296
2019-05-28T06:31:29,42.805,6.029,4330,1995,194.374,59.453,13.296
2019-05-28T06:34:29,42.805,6.029,4330,1995,194.446,59.475,13.296
2019-05-28T06:37:29,42.805,6.029,4330,1995,194.440,59.475,13.297
2019-05-28T06:40:29,42.805,6.029,4330,1995,194.425,59.468,13.296
2019-05-28T06:43:29,42.805,6.029,4330,1995,194.403,59.460,13.295
2019-05-28T06:46:29,42.805,6.029,4330,1995,194.451,59.475,13.295
2019-05-28T06:49:29,42.805,6.029,4330,1995,194.472,59.483,13.296
2019-05-28T06:52:29,42.805,6.029,4330,1995,194.433,59.472,13.297
2019-05-28T06:55:29,42.805,6.029,4330,1995,194.435,59.471,13.296
2019-05-28T06:58:29,42.805,6.029,4330,1995,194.494,59.488,13.295
2019-05-28T07:01:29,42.805,6.029,4330,1995,194.452,59.476,13.296
2019-05-28T07:04:29,42.805,6.029,4330,1995,194.481,59.486,13.297
2019-05-28T07:07:29,42.805,6.029,4330,1995,194.443,59.473,13.296
2019-05-28T07:10:29,42.805,6.029,4330,1995,194.384,59.454,13.295
2019-05-28T07:13:29,42.805,6.029,4330,1995,194.410,59.462,13.295
2019-05-28T07:16:29,42.805,6.029,4330,1995,194.408,59.463,13.296
2019-05-28T07:19:29,42.805,6.029,4330,1995,194.369,59.452,13.297
2019-05-28T07:22:28,42.805,6.029,4330,1995,194.354,59.447,13.296
2019-05-28T07:25:28,42.805,6.029,4330,1995,194.318,59.435,13.295
2019-05-28T07:28:28,42.805,6.029,4330,1995,194.254,59.418,13.297
2019-05-28T07:31:28,42.805,6.029,4330,1995,194.222,59.410,13.299
2019-05-28T07:34:28,42.805,6.029,4330,1995,194.265,59.418,13.295
2019-05-28T07:37:28,42.805,6.029,4330,1995,194.299,59.426,13.293
2019-05-28T07:40:28,42.805,6.029,4330,1995,194.364,59.448,13.295
2019-05-28T07:43:28,42.805,6.029,4330,1995,194.292,59.427,13.295
2019-05-28T07:46:28,42.805,6.029,4330,1995,194.250,59.413,13.294
2019-05-28T07:49:28,42.805,6.029,4330,1995,194.205,59.399,13.295
2019-05-28T07:52:28,42.805,6.029,4330,1995,194.069,59.360,13.297
2019-05-28T07:55:28,42.805,6.029,4330,1995,193.973,59.333,13.298
2019-05-28T07:58:28,42.805,6.029,4330,1995,193.972,59.329,13.295
2019-05-28T08:01:28,42.805,6.029,4330,1995,194.050,59.350,13.293
2019-05-28T08:04:28,42.805,6.029,4330,1995,194.019,59.340,13.293
2019-05-28T08:07:28,42.805,6.029,4330,1995,194.069,59.356,13.293
2019-05-28T08:10:28,42.805,6.029,4330,1995,194.077,59.359,13.293
2019-05-28T08:13:28,42.805,6.029,4330,1995,193.894,59.303,13.294
2019-05-28T08:16:28,42.805,6.029,4330,1995,193.849,59.290,13.295
2019-05-28T08:19:28,42.805,6.029,4330,1995,193.672,59.235,13.294
2019-05-28T08:22:28,42.805,6.029,4330,1995,193.697,59.242,13.293
2019-05-28T08:25:28,42.805,6.029,4330,1995,193.626,59.220,13.293
2019-05-28T08:28:28,42.805,6.029,4330,1995,193.626,59.222,13.295
2019-05-28T08:31:28,42.805,6.029,4330,1995,193.524,59.190,13.294
2019-05-28T08:34:28,42.805,6.029,4330,1995,193.648,59.230,13.295
2019-05-28T08:37:28,42.805,6.029,4330,1995,193.606,59.216,13.295
2019-05-28T08:40:28,42.805,6.029,4330,1995,193.626,59.222,13.294
2019-05-28T08:43:28,42.805,6.029,4330,1995,193.612,59.217,13.294
2019-05-28T08:46:28,42.805,6.029,4330,1995,193.694,59.243,13.294
2019-05-28T08:49:28,42.805,6.029,4330,1995,193.685,59.237,13.292
2019-05-28T08:52:28,42.805,6.029,4330,1995,193.843,59.287,13.293
2019-05-28T08:55:28,42.805,6.029,4330,1995,193.934,59.314,13.293
2019-05-28T08:58:28,42.805,6.029,4330,1995,194.038,59.347,13.294
2019-05-28T09:01:28,42.805,6.029,4330,1995,194.128,59.376,13.294
2019-05-28T09:04:28,42.805,6.029,4330,1995,194.095,59.365,13.294
2019-05-28T09:07:28,42.805,6.029,4330,1995,194.075,59.359,13.294
2019-05-28T09:10:28,42.805,6.029,4330,1995,194.080,59.360,13.294
2019-05-28T09:13:28,42.805,6.029,4330,1995,194.044,59.349,13.293
2019-05-28T09:16:28,42.805,6.029,4330,1995,193.874,59.301,13.297
2019-05-28T09:19:28,42.805,6.029,4330,1995,193.923,59.312,13.294
2019-05-28T09:22:28,42.805,6.029,4330,1995,194.052,59.353,13.295
2019-05-28T09:25:28,42.805,6.029,4330,1995,194.110,59.369,13.293
2019-05-28T09:28:28,42.805,6.029,4330,1995,194.050,59.350,13.293
2019-05-28T09:31:28,42.805,6.029,4330,1995,194.084,59.360,13.293
2019-05-28T09:34:28,42.805,6.029,4330,1995,193.997,59.337,13.296
2019-05-28T09:37:28,42.805,6.029,4330,1995,194.011,59.340,13.294
2019-05-28T09:40:28,42.805,6.029,4330,1995,193.787,59.272,13.295
2019-05-28T09:43:28,42.805,6.029,4330,1995,193.719,59.248,13.293
2019-05-28T09:46:28,42.805,6.029,4330,1995,193.854,59.289,13.292
2019-05-28T09:49:28,42.805,6.029,4330,1995,193.887,59.300,13.293
2019-05-28T09:52:28,42.805,6.029,4330,1995,193.778,59.269,13.295
2019-05-28T09:55:28,42.805,6.029,4330,1995,193.740,59.256,13.293
2019-05-28T09:58:28,42.805,6.029,4330,1995,193.904,59.304,13.292
2019-05-28T10:01:28,42.805,6.029,4330,1995,193.853,59.289,13.292
2019-05-28T10:04:28,42.805,6.029,4330,1995,193.758,59.260,13.293
2019-05-28T10:07:28,42.805,6.029,4330,1995,193.891,59.299,13.291
2019-05-28T10:10:28,42.805,6.029,4330,1995,193.921,59.308,13.291
2019-05-28T10:13:28,42.805,6.029,4330,1995,193.979,59.326,13.292
2019-05-28T10:16:28,42.805,6.029,4330,1995,194.038,59.344,13.291
2019-05-28T10:19:28,42.805,6.029,4330,1995,194.075,59.355,13.291
2019-05-28T10:22:28,42.805,6.029,4330,1995,194.063,59.353,13.292
2019-05-28T10:25:28,42.805,6.029,4330,1995,194.045,59.347,13.292
2019-05-28T10:28:28,42.805,6.029,4330,1995,194.159,59.380,13.291
2019-05-28T10:31:28,42.805,6.029,4330,1995,194.339,59.437,13.292
2019-05-28T10:34:28,42.805,6.029,4330,1995,194.306,59.426,13.292
2019-05-28T10:37:28,42.805,6.029,4330,1995,194.317,59.432,13.294
2019-05-28T10:40:28,42.805,6.029,4330,1995,194.229,59.404,13.293
2019-05-28T10:43:28,42.805,6.029,4330,1995,194.392,59.453,13.292
2019-05-28T10:46:28,42.805,6.029,4330,1995,194.315,59.429,13.291
2019-05-28T10:49:28,42.805,6.029,4330,1995,194.215,59.399,13.292
2019-05-28T10:52:28,42.805,6.029,4330,1995,194.260,59.412,13.291
2019-05-28T10:55:28,42.805,6.029,4330,1995,194.252,59.409,13.291
2019-05-28T10:58:28,42.805,6.029,4330,1995,194.315,59.428,13.291
2019-05-28T11:01:28,42.805,6.029,4330,1995,194.303,59.424,13.291
2019-05-28T11:04:28,42.805,6.029,4330,1995,194.297,59.423,13.291
2019-05-28T11:07:28,42.805,6.029,4330,1995,194.360,59.442,13.291
2019-05-28T11:10:28,42.805,6.029,4330,1995,194.465,59.474,13.291
2019-05-28T11:13:28,42.805,6.029,4330,1995,194.453,59.470,13.291
2019-05-28T11:16:28,42.805,6.029,4330,1995,194.405,59.455,13.290
2019-05-28T11:19:28,42.805,6.029,4330,1995,194.340,59.436,13.291
2019-05-28T11:22:28,42.805,6.029,4330,1995,194.300,59.423,13.290
2019-05-28T11:25:28,42.805,6.029,4330,1995,194.354,59.439,13.291
2019-05-28T11:28:28,42.805,6.029,4330,1995,194.418,59.459,13.291
2019-05-28T11:31:28,42.805,6.029,4330,1995,194.368,59.444,13.291
2019-05-28T11:34:28,42.805,6.029,4330,1995,194.497,59.484,13.291
2019-05-28T11:37:28,42.805,6.029,4330,1995,194.428,59.462,13.291
2019-05-28T11:40:28,42.805,6.029,4330,1995,194.312,59.427,13.290
2019-05-28T11:43:28,42.805,6.029,4330,1995,194.448,59.467,13.290
2019-05-28T11:46:28,42.805,6.029,4330,1995,194.479,59.477,13.290
2019-05-28T11:49:28,42.805,6.029,4330,1995,194.579,59.507,13.289
2019-05-28T11:52:28,42.805,6.029,4330,1995,194.574,59.505,13.289
2019-05-28T11:55:28,42.805,6.029,4330,1995,194.589,59.509,13.289
2019-05-28T11:58:28,42.805,6.029,4330,1995,194.511,59.486,13.289
2019-05-28T12:01:28,42.805,6.029,4330,1995,194.521,59.489,13.289
2019-05-28T12:04:28,42.805,6.029,4330,1995,194.624,59.520,13.289
2019-05-28T12:07:28,42.805,6.029,4330,1995,194.584,59.507,13.289
2019-05-28T12:10:28,42.805,6.029,4330,1995,194.695,59.541,13.289
2019-05-28T12:13:28,42.805,6.029,4330,1995,194.611,59.516,13.289
2019-05-28T12:16:28,42.805,6.029,4330,1995,194.549,59.498,13.290
2019-05-28T12:19:28,42.805,6.029,4330,1995,194.460,59.470,13.289
2019-05-28T12:22:28,42.805,6.029,4330,1995,194.455,59.468,13.289
2019-05-28T12:25:28,42.805,6.029,4330,1995,194.499,59.481,13.289
2019-05-28T12:28:28,42.805,6.029,4330,1995,194.499,59.481,13.289
2019-05-28T12:31:28,42.805,6.029,4330,1995,194.550,59.497,13.289
2019-05-28T12:34:28,42.805,6.029,4330,1995,194.621,59.519,13.289
2019-05-28T12:37:28,42.805,6.029,4330,1995,194.601,59.513,13.289
2019-05-28T12:40:28,42.805,6.029,4330,1995,194.554,59.500,13.290
2019-05-28T12:43:28,42.805,6.029,4330,1995,194.701,59.544,13.290
2019-05-28T12:46:28,42.805,6.029,4330,1995,194.618,59.518,13.289
2019-05-28T12:49:28,42.805,6.029,4330,1995,194.698,59.543,13.289
2019-05-28T12:52:28,42.805,6.029,4330,1995,194.702,59.545,13.290
2019-05-28T12:55:28,42.805,6.029,4330,1995,194.691,59.541,13.290
2019-05-28T12:58:28,42.805,6.029,4330,1995,194.524,59.491,13.290
2019-05-28T13:01:28,42.805,6.029,4330,1995,194.533,59.494,13.290
2019-05-28T13:04:28,42.805,6.029,4330,1995,194.544,59.496,13.290
2019-05-28T13:07:28,42.805,6.029,4330,1995,194.552,59.499,13.290
2019-05-28T13:10:28,42.805,6.029,4330,1995,194.558,59.502,13.290
2019-05-28T13:13:28,42.805,6.029,4330,1995,194.514,59.487,13.290
2019-05-28T13:16:28,42.805,6.029,4330,1995,194.564,59.503,13.290
2019-05-28T13:19:28,42.805,6.029,4330,1995,194.618,59.520,13.290
2019-05-28T13:22:28,42.805,6.029,4330,1995,194.601,59.515,13.291
2019-05-28T13:25:28,42.805,6.029,4330,1995,194.567,59.504,13.290
2019-05-28T13:28:28,42.805,6.029,4330,1995,194.598,59.514,13.290
2019-05-28T13:31:28,42.805,6.029,4330,1995,194.669,59.536,13.291
2019-05-28T13:34:28,42.805,6.029,4330,1995,194.667,59.535,13.291
2019-05-28T13:37:28,42.805,6.029,4330,1995,194.714,59.550,13.291
2019-05-28T13:40:28,42.805,6.029,4330,1995,194.758,59.563,13.291
2019-05-28T13:43:28,42.805,6.029,4330,1995,194.747,59.559,13.290
2019-05-28T13:46:28,42.805,6.029,4330,1995,194.799,59.575,13.290
2019-05-28T13:49:28,42.805,6.029,4330,1995,194.796,59.575,13.291
2019-05-28T13:52:28,42.805,6.029,4330,1995,194.858,59.593,13.290
2019-05-28T13:55:28,42.805,6.029,4330,1995,194.878,59.599,13.290
2019-05-28T13:58:28,42.805,6.029,4330,1995,194.919,59.611,13.290
2019-05-28T14:01:28,42.805,6.029,4330,1995,195.020,59.641,13.289
2019-05-28T14:04:28,42.805,6.029,4330,1995,195.064,59.654,13.288
2019-05-28T14:07:28,42.805,6.029,4330,1995,195.176,59.689,13.289
2019-05-28T14:10:28,42.805,6.029,4330,1995,195.198,59.696,13.289
2019-05-28T14:13:28,42.805,6.029,4330,1995,195.202,59.695,13.288
2019-05-28T14:16:28,42.805,6.029,4330,1995,195.270,59.716,13.288
2019-05-28T14:19:28,42.805,6.029,4330,1995,195.355,59.742,13.288
2019-05-28T14:22:28,42.805,6.029,4330,1995,195.439,59.768,13.288
2019-05-28T14:25:28,42.805,6.029,4330,1995,195.489,59.783,13.288
2019-05-28T14:28:28,42.805,6.029,4330,1995,195.540,59.799,13.288
2019-05-28T14:31:28,42.805,6.029,4330,1995,195.603,59.818,13.288
2019-05-28T14:34:28,42.805,6.029,4330,1995,195.632,59.827,13.288
2019-05-28T14:37:28,42.805,6.029,4330,1995,195.605,59.819,13.288
2019-05-28T14:40:28,42.805,6.029,4330,1995,195.693,59.846,13.288
2019-05-28T14:43:28,42.805,6.029,4330,1995,195.680,59.842,13.288
2019-05-28T14:46:28,42.805,6.029,4330,1995,195.661,59.836,13.288
2019-05-28T14:49:28,42.805,6.029,4330,1995,195.730,59.857,13.288
2019-05-28T14:52:28,42.805,6.029,4330,1995,195.734,59.858,13.288
2019-05-28T14:55:28,42.805,6.029,4330,1995,195.719,59.853,13.288
2019-05-28T14:58:28,42.805,6.029,4330,1995,195.760,59.867,13.288
2019-05-28T15:01:28,42.805,6.029,4330,1995,195.744,59.862,13.288
2019-05-28T15:04:28,42.805,6.029,4330,1995,195.627,59.826,13.288
2019-05-28T15:07:28,42.805,6.029,4330,1995,195.717,59.853,13.288
2019-05-28T15:10:28,42.805,6.029,4330,1995,195.704,59.849,13.288
2019-05-28T15:13:28,42.805,6.029,4330,1995,195.647,59.832,13.288
2019-05-28T15:16:28,42.805,6.029,4330,1995,195.708,59.851,13.288
2019-05-28T15:19:28,42.805,6.029,4330,1995,195.707,59.850,13.288
2019-05-28T15:22:28,42.805,6.029,4330,1995,195.674,59.840,13.288
2019-05-28T15:25:28,42.805,6.029,4330,1995,195.673,59.840,13.289
2019-05-28T15:28:28,42.805,6.029,4330,1995,195.617,59.824,13.289
2019-05-28T15:31:28,42.805,6.029,4330,1995,195.579,59.812,13.289
2019-05-28T15:34:28,42.805,6.029,4330,1995,195.559,59.806,13.289
2019-05-28T15:37:28,42.805,6.029,4330,1995,195.517,59.793,13.289
2019-05-28T15:40:28,42.805,6.029,4330,1995,195.531,59.797,13.289
2019-05-28T15:43:28,42.805,6.029,4330,1995,195.454,59.774,13.289
2019-05-28T15:46:28,42.805,6.029,4330,1995,195.484,59.783,13.289
2019-05-28T15:49:28,42.805,6.029,4330,1995,195.468,59.778,13.289
2019-05-28T15:52:28,42.805,6.029,4330,1995,195.466,59.777,13.289
2019-05-28T15:55:28,42.805,6.029,4330,1995,195.423,59.764,13.288
2019-05-28T15:58:28,42.805,6.029,4330,1995,195.399,59.757,13.289
2019-05-28T16:01:28,42.805,6.029,4330,1995,195.375,59.749,13.289
2019-05-28T16:04:28,42.805,6.029,4330,1995,195.415,59.761,13.288
2019-05-28T16:07:28,42.805,6.029,4330,1995,195.346,59.740,13.288
2019-05-28T16:10:28,42.805,6.029,4330,1995,195.281,59.720,13.288
2019-05-28T16:13:28,42.805,6.029,4330,1995,195.347,59.740,13.288
2019-05-28T16:16:28,42.805,6.029,4330,1995,195.269,59.716,13.288
2019-05-28T16:19:28,42.805,6.029,4330,1995,195.224,59.702,13.288
2019-05-28T16:22:28,42.805,6.029,4330,1995,195.241,59.707,13.288
2019-05-28T16:25:28,42.805,6.029,4330,1995,195.240,59.707,13.288
2019-05-28T16:28:28,42.805,6.029,4330,1995,195.227,59.703,13.288
2019-05-28T16:31:28,42.805,6.029,4330,1995,195.220,59.701,13.288
2019-05-28T16:34:28,42.805,6.029,4330,1995,195.229,59.703,13.287
2019-05-28T16:37:28,42.805,6.029,4330,1995,195.283,59.720,13.288
2019-05-28T16:40:28,42.805,6.029,4330,1995,195.294,59.723,13.288
2019-05-28T16:43:28,42.805,6.029,4330,1995,195.299,59.725,13.288
2019-05-28T16:46:28,42.805,6.029,4330,1995,195.324,59.733,13.288
2019-05-28T16:49:28,42.805,6.029,4330,1995,195.325,59.733,13.288
2019-05-28T16:52:28,42.805,6.029,4330,1995,195.363,59.744,13.288
2019-05-28T16:55:28,42.805,6.029,4330,1995,195.407,59.758,13.288
2019-05-28T16:58:28,42.805,6.029,4330,1995,195.326,59.733,13.288
2019-05-28T17:01:28,42.805,6.029,4330,1995,195.381,59.750,13.288
2019-05-28T17:04:28,42.805,6.029,4330,1995,195.455,59.773,13.288
2019-05-28T17:07:28,42.805,6.029,4330,1995,195.479,59.781,13.288
2019-05-28T17:10:28,42.805,6.029,4330,1995,195.487,59.783,13.288
2019-05-28T17:13:28,42.805,6.029,4330,1995,195.416,59.761,13.288
2019-05-28T17:16:28,42.805,6.029,4330,1995,195.414,59.761,13.289
2019-05-28T17:19:28,42.805,6.029,4330,1995,195.358,59.744,13.289
2019-05-28T17:22:28,42.805,6.029,4330,1995,195.438,59.769,13.289
2019-05-28T17:25:28,42.805,6.029,4330,1995,195.362,59.746,13.289
2019-05-28T17:28:28,42.805,6.029,4330,1995,195.415,59.762,13.289
2019-05-28T17:31:28,42.805,6.029,4330,1995,195.411,59.761,13.289
2019-05-28T17:34:28,42.805,6.029,4330,1995,195.385,59.753,13.289
2019-05-28T17:37:28,42.805,6.029,4330,1995,195.297,59.726,13.289
2019-05-28T17:40:28,42.805,6.029,4330,1995,195.414,59.762,13.289
2019-05-28T17:43:28,42.805,6.029,4330,1995,195.468,59.778,13.289
2019-05-28T17:46:28,42.805,6.029,4330,1995,195.399,59.757,13.289
2019-05-28T17:49:28,42.805,6.029,4330,1995,195.347,59.741,13.289
2019-05-28T17:52:28,42.805,6.029,4330,1995,195.442,59.770,13.289
2019-05-28T17:55:28,42.805,6.029,4330,1995,195.319,59.733,13.289
2019-05-28T17:58:28,42.805,6.029,4330,1995,195.350,59.742,13.289
2019-05-28T18:01:28,42.805,6.029,4330,1995,195.395,59.757,13.289
2019-05-28T18:04:28,42.805,6.029,4330,1995,195.286,59.723,13.290
2019-05-28T18:07:28,42.805,6.029,4330,1995,195.251,59.712,13.289